Вернуться в каталог

ERS 1 DEB

АктивенSSO
NORAD 35259·DEBRIS·🇪🇺 EU

Запущен Jul 17, 1991 с Guiana Space Centre

Loading…

Ближайшие Пролёты (ближайшие 24 часа)

TLE

СвежийSource: Space-Track

Эпоха: Sep 14, 2026, 15:00 UTC

1 35259U 91050N   26257.62533237  .00001793  00000-0  35020-3 0  9995
2 35259  98.4812 306.6503 0013288 305.8632 215.2922 14.64172972187990

Отслеживайте ERS 1 DEB в реальном времени с AllMySat

Download on the App Store